Location: Les Jeannots
(43.2262°N, 5.5774°E)
Time: 18:35:15
(UTC+00:00)

Cosmos 1812 Rocket - Pass Details

Date: 05 July 2020
Orbit: 605 x 633 km, 82.5° (Epoch: 12 August)

Event Time Altitude Azimuth Distance (km) Brightness Sun altitude
Rises 20:16:46 0° 351° (N) 2,878 7.9 -8.9°
Reaches altitude 10° 20:18:59 10° 351° (N) 1,967 7.0 -9.2°
Maximum altitude 20:23:21 87° 265° (W) 613 3.5 -9.8°
Drops below altitude 10° 20:27:39 10° 174° (S) 1,947 5.7 -10.4°
Enters shadow 20:28:09 - 174° (S) 2,150 5.9 -10.4°
